Location: Gleizolles
(44.4833°N, 6.7667°E)
Time: 21:06:09
(UTC+00:00)

Tiros 1 despin weight - Pass Details

Date: 04 July 2024
Orbit: 576 x 620 km, 48.2° (Epoch: 19 July)

Event Time Altitude Azimuth Distance (km) Brightness Sun altitude
Rises 11:37:42 0° 291° (WNW) 2,887 ? 68.3°
Reaches altitude 10° 11:40:01 10° 292° (WNW) 1,983 ? 68.3°
Maximum altitude 11:44:36 85° 21° (NNE) 627 ? 68.3°
Drops below altitude 10° 11:49:10 10° 110° (ESE) 1,982 ? 68.2°
Sets 11:51:29 0° 111° (ESE) 2,885 ? 68.1°
